Regional Weather Roundup
Issued by NWS Cleveland, OH

Home | Current Version | Previous Version | Graphics & Text | Print | Product List | Glossary On
Versions: 1 2 3 4 5 6 7 8 9 10 11 12 13 14 15 16 17 18 19 20 21 22 23 24 25 26 27 28 29 30 31 32 33 34 35 36 37 38 39 40 41 42 43 44 45 46 47 48 49 50
878
ASUS41 KCLE 231110
RWRCLE
OHIO REGIONAL WEATHER ROUNDUP
NATIONAL WEATHER SERVICE WILMINGTON, OH
600 AM EST MON JAN 23 2017

NOTE: "FAIR" INDICATES FEW OR NO CLOUDS BELOW 12,000 FEET WITH NO
SIGNIFICANT WEATHER AND/OR OBSTRUCTIONS TO VISIBILITY.

OHZ001>008-015>018-024>027-034-035-043-044-231200-
   NORTHWEST OHIO

CITY           SKY/WX    TMP DP  RH WIND       PRES   REMARKS
DEFIANCE       CLOUDY    42  41  96 NE14      29.59S
FINDLAY        FOG       39  36  89 NE16      29.55R VSB 1
TOLEDO EXPRESS CLOUDY    41  41 100 NE13      29.59S FOG
TOLEDO EXEC    CLOUDY    39  39 100 NE12G20   29.61S FOG
LIMA           LGT RAIN  39  39 100 N15       29.53S VSB 1
$$

OHZ009>014-019>023-028>033-038-089-231200-
   NORTHEAST OHIO

CITY           SKY/WX    TMP DP  RH WIND       PRES   REMARKS
CLE-HOPKINS    LGT RAIN  41  37  86 N10       29.58S FOG
CLE-LAKEFRONT  LGT RAIN  37  36  96 NE16      29.56S FOG
CUY CO. ARPT   NOT AVBL
LORAIN-ELYRIA  RAIN      39  36  89 NE12      29.55S FOG
ASHTABULA      LGT RAIN  38  38 100 NE3       29.60S FOG
AKRON-CANTON   LGT RAIN  49  45  86 E15       29.51S
WOOSTER        LGT RAIN  48  46  93 NE14      29.51R
MANSFIELD      RAIN      46  46 100 NE10      29.50R FOG
YOUNGSTOWN     LGT RAIN  49  44  83 E17G24    29.55S
$$

OHZ042-051>053-060>062-070>072-077>081-231200-
  SOUTHWEST OHIO

CITY           SKY/WX    TMP DP  RH WIND       PRES   REMARKS
CINC-COVINGTON LGT RAIN  48  47  96 N15       29.43R FOG
CINC-LUNKEN    LGT RAIN  50  49  96 N14       29.43R
HAMILTON       CLOUDY    48  45  89 N12       29.47R
DAYTON         LGT RAIN  43  41  93 N15       29.49R FOG
WRIGHT-PAT AFB CLOUDY    45  45  99 N12       29.46S
DAYTON GENERAL CLOUDY    46  43  89 N12G23    29.45R
WILMINGTON     LGT RAIN  49  47  93 N16G24    29.42R FOG
$$

OHZ036-037-039>041-045>050-054>059-063>069-073>076-082>088-231200-
  CENTRAL AND SOUTHEAST OHIO

CITY           SKY/WX    TMP DP  RH WIND       PRES   REMARKS
COLUMBUS       CLOUDY    53  48  83 N10       29.42S
OSU AIRPORT    CLOUDY    47  47 100 N12       29.44S FOG
BOLTON FIELD   LGT RAIN  48  47  97 N10       29.44S
RICKENBACK AFB   N/A     51  49  93 N10       29.41S
NEWARK         CLOUDY    52  47  83 VRB6      29.43S
MARION           N/A     41  39  93 N16       29.50S
LANCASTER      CLOUDY    54  47  77 NE12      29.42S
ZANESVILLE     CLOUDY    51  46  83 NE9       29.43R
NEW PHILLY     LGT RAIN  50  47  89 NE7       29.48S
$$




USA.gov is the U.S. government's official web portal to all federal, state and local government web resources and services.